Regional Weather Roundup
Issued by NWS Pendleton, OR

Home | Current Version | Previous Version | Text Only | Print | Product List | Glossary On
Versions: 1 2 3 4 5 6 7 8 9 10 11 12 13 14 15 16 17 18 19 20 21 22 23 24 25 26 27 28 29 30 31 32 33 34 35 36 37 38 39 40 41 42 43 44 45 46 47 48 49 50
000
ASUS46 KPDT 242010
RWRPDT
PENDLETON REGIONAL WEATHER ROUNDUP
NATIONAL WEATHER SERVICE PENDLETON OREGON
100 PM PDT THU JUL 24 2014

NOTE: FAIR INDICATES FEW OR NO CLOUDS BELOW 12,000 FEET WITH NO
SIGNIFICANT WEATHER AND/OR OBSTRUCTIONS TO VISIBILITY.

# INDICATES UNOFFICIAL STATION AND DATA

WAZ520-242110-
EAST SLOPES OF WASHINGTON CASCADES

CITY            SKY/WX      TMP DP  RH  WIND    PRES   REMARKS
#BUMPING DAM    N/A         52  N/A N/A S8      N/A
#CLE ELUM HS    N/A         57  49  75  N5      30.11R
#CLE ELUM LAKE  N/A         52  50  93  CALM    30.12R
#CLIFFDEL 2NW   N/A         56  45  66  W5      N/A
#EASTON DOT     N/A         52  49  89  N1      N/A
#ELK HTS DOT    N/A         60  60  100 NW5     N/A
#GLENWOOD       N/A         64  52  65  SW9     30.16S
#MANASTASH CYN  N/A         64  49  58  NW2     30.11R
#NELSON         N/A         56  52  86  CALM    30.14R
#NELSON 3SW     N/A         55  51  86  CALM    30.34R
#PEOH POINT     N/A         48  47  96  SW1     N/A
#RONALD 2NW     N/A         54  49  83  W1      30.04R
#SOUTH BLEWITT  N/A         56  51  83  CALM    N/A
#TROUT LAKE 1NE N/A         61  51  70  NW6     30.19S
$$

WAZ521-242110-
SIMCOE HIGHLANDS

CITY            SKY/WX      TMP DP  RH  WIND    PRES   REMARKS
#BICKLETON HS   N/A         59  38  45  W10G26  30.18F
#SATUS PASS DOT N/A         57  40  53  CALM    N/A
#CENTERVILLE 1SWN/A         63  48  58  W18     30.14F
#GOLDENDALE 1NE N/A         64  42  45  SW7     N/A
#GOLDENDALE 1S  N/A         65  51  60  W14G24  30.17S
#GOLDENDALE 5WNWN/A         63  50  62  SW17    30.16F
#GOODNOE HILLS  N/A         70  48  46  W28G35  30.10F
#LYLE 6NE       N/A         64  52  65  W10     30.16F
$$

WAZ026-242110-
KITTITAS VALLEY

CITY            SKY/WX      TMP DP  RH  WIND    PRES   REMARKS
ELLENSBURG AP   PTCLDY      71  50  47  NW17G25 30.13S
#ELLENSBURG CWU N/A         68  50  53  N15     30.06S
#ELLENSBURG 3NE N/A         65  52  63  N8      30.12F
#ELLENSBURG 1E  N/A         70  48  46  NW1     N/A
#KITTITAS 3S    N/A         66  52  61  W1      30.08S
#RYEGRASS DOT   N/A         63  44  50  W13     N/A
#THORP 6N       N/A         60  49  67  N18G25  30.12S
$$

WAZ027-242110-
YAKIMA VALLEY

CITY            SKY/WX      TMP DP  RH  WIND    PRES   REMARKS
YAKIMA AIRPORT  MOSUNNY     76  43  31  W13G25  30.11S
#COWICHE 1N     N/A         67  45  45  SW9     30.24S
#DONALD 2NE     N/A         67  43  42  SW1     30.30S
#GRANDVIEW      N/A         71  43  36  SW1     30.12F
#MABTON         N/A         72  47  41  W7      30.12S
#MOXEE 2E       N/A         73  25  17  SW10    29.99F
#NACHES 2SW     N/A         69  50  51  W8      30.13R
#TERRACE HTS    N/A         77  46  33  NW7     30.06S
#TOPPENISH      N/A         72  47  41  SW7     30.02S
#WAPATO 4NE     N/A         67  43  42  SW1     30.30S
#W YAKIMA       N/A         71  47  42  W6      30.09R
#WHITE SWAN 5E  N/A         75  49  40  SW20G28 30.09S
#WILEY CITY 3W  N/A         68  41  37  CALM    30.11F
$$

WAZ028-242110-
LOWER COLUMBIA BASIN...WASHINGTON

CITY            SKY/WX      TMP DP  RH  WIND    PRES   REMARKS
HANFORD         CLOUDY      76  40  27  W13     30.11S
PASCO           SUNNY       76  46  34  SW20G28 30.14F
PROSSER AWOS    N/A         73  48  41  W9      30.15S
RICHLAND AWOS   PTCLDY      75  43  32  S16G24  30.12F
#BASIN CITY 5SW N/A         75  52  45  S3      30.11F
#BENTON CITY    N/A         72  48  43  W7      30.01S
#CONNELL 5N     N/A         72  47  41  SW15    30.10F
#CONNELL 5NW    N/A         70  48  46  SW12G24 30.07S
#ELTOPIA 6NW    N/A         70  48  46  S10     29.10S
#KENNEWICK 3S   N/A         71  47  42  S10     30.12F
#PASCO-BROADMOORN/A         75  50  41  NW12    30.01F
#PATERSON       N/A         72  48  43  SW20G26 30.13F
#PROSSER DOT    N/A         73  43  34  W15     N/A
#PROSSER        N/A         72  42  34  W7      30.11S
#SAGEMOOR 2W    N/A         71  52  51  S12     29.97S
#TOUCHET 2S     N/A         73  49  43  W8      30.13S
#WEST PASCO     N/A         75  52  45  S8      30.12F
$$

WAZ029-242110-
FOOTHILLS OF THE BLUES...WASHINGTON

CITY            SKY/WX      TMP DP  RH  WIND    PRES   REMARKS
WALLA WALLA AP  LGT RAIN    74  41  30  SW16G30 30.18S
#COLLEGE PLACE  N/A         77  41  28  SW5     30.16S
#DAYTON SCHOOL  N/A         66  38  36  SW5     30.15S
#DELANEY DOT    N/A         71  39  31  S13     N/A
#LOWDEN 2SE     N/A         73  48  41  W14     30.11F
#PLEASANT VIEW 1N/A         68  44  42  SW17G26 30.16S
#PRESCOTT       N/A         71  47  42  SW5     30.12F
#SUDBURY        N/A         74  N/A N/A W12     N/A
#WHITMAN COLLEGEN/A         69  45  42  SW13    30.19F
#WAITSBURG 8N   N/A         69  31  24  S17G24  30.00S
#WALLA WALLA 5E N/A         72  44  37  S15     N/A
#WALLA WALLA U  N/A         70  45  41  SW8     30.13F
#WHITMAN MISSIONN/A         72  48  43  W12     30.15F
$$

WAZ030-242110-
BLUE MOUNTAINS...WASHINGTON

CITY            SKY/WX      TMP DP  RH  WIND    PRES   REMARKS
$$

ORZ009-041-WAZ024-242110-
COLUMBIA RIVER GORGE

CITY            SKY/WX      TMP DP  RH  WIND    PRES   REMARKS
HOOD RIVER AP   PTCLDY      66  52  61  W12     30.22S
THE DALLES AP   PTCLDY      73  51  46  NW14    30.20S
#ARLINGTON AIRPON/A         70  47  44  W22     N/A
#ARLINGTON HS   N/A         72  46  39  SW8     30.07F
#CELILO DOT     N/A         73  47  40  S3      N/A
#MARYHILL       N/A         69  46  44  CALM    N/A
#MOSIER 1S      N/A         67  45  45  NW5     30.27S
#MURDOCK        N/A         69  54  59  NW14    30.21F
#RUFUS DOT      N/A         72  48  43  SW7     N/A

$$

ORZ510-242110-
NORTH CENTRAL OREGON

CITY            SKY/WX      TMP DP  RH  WIND    PRES   REMARKS
#CHENOWITH 1W   N/A         61  51  70  NW24    N/A
#COW CYN RST AREN/A         63  42  46  NW7     N/A
#DUFUR 9E       N/A         60  48  64  W7      30.25S
#GRASS VALLEY 1SN/A         65  47  52  W2      30.20S
#KENT DOT       N/A         64  36  35  W13     N/A
#MAUPIN SCHOOL  N/A         70  46  42  W9      30.22F
#MORO SCHOOL    N/A         64  53  67  NW9     30.22S
#SHANIKO 5WSW   N/A         60  34  37  W18     N/A
#SHANIKO 4NW    N/A         58  41  53  W14     30.25R
#TYGH VALLEY 2NEN/A         68  49  51  SW3     30.16S
#WAPANITIA AIRPON/A         65  46  50  W8      30.20S
#WASCO DOT      N/A         69  44  40  NW16    N/A
#WASCO 5NE      N/A         68  47  47  W12G26  30.17F
$$

ORZ511-242110-
CENTRAL OREGON

CITY            SKY/WX      TMP DP  RH  WIND    PRES   REMARKS
BEND AIRPORT    SUNNY       64  36  35  N9      30.25F
MADRAS AIRPORT  PTCLDY      66  39  37  N6      30.25F
REDMOND AIRPORT SUNNY       68  38  33  NW12    30.24S
#BEND 6E        N/A         64  33  31  CALM    30.12F
#BEND 1SW       N/A         63  38  39  SW2     N/A
#BEND-AWBREY    N/A         66  40  38  CALM    30.19F
#BEND-KIM LN    N/A         68  43  40  N1      30.22F
#CROOKED RVR RANN/A         67  44  43  CALM    30.19F
#CULVER         N/A         64  42  45  SW2     30.20F
#LAKE BILLY CHINN/A         64  -2   7  N7      30.23F
#POWELL BUTTE 3EN/A         62  41  46  N3      N/A
#POWELL BUTTE   N/A         69  48  47  N5      29.87F
#PRINEVILLE 3N  N/A         64  45  50  CALM    30.16F


ORZ509-242110-
EAST SLOPES OF OREGON CASCADES

CITY            SKY/WX      TMP DP  RH  WIND    PRES   REMARKS
#BLUE BOX PASS  N/A         51  -1  11  SW2     N/A
#BLACK BUTTE RNCN/A         62  46  56  S1      30.22F
#CAMP SHERMAN   N/A         64  45  50  SW1     30.23S
#LA PINE DOT    N/A         65  30  27  SW7     N/A
#LA PINE 4NW    N/A         60  41  49  CALM    30.25F
#LAVA BUTTE DOT N/A         64  35  34  SE1     N/A
#SISTERS AIRPOR N/A         61  48  62  N7      30.22F
#SISTERS ODOT   N/A         61  N/A N/A S7      N/A
#SISTERS 3N     N/A         61  32  33  N3      30.25F
#SUNRIVER       N/A         65  41  41  W2      30.08F
#SUNRIVER AP    N/A         65  40  40  CALM    30.17F
#SUTTLE LK DOT  N/A         55  46  72  W29G38  N/A
#TUMALO 3W      N/A         63  41  44  E3      30.10F
#WANOGA BUTTE D N/A         52  37  56  NE7     N/A

$$

ORZ044-242110-
LOWER COLUMBIA BASIN...OREGON

CITY            SKY/WX      TMP DP  RH  WIND    PRES   REMARKS
HERMISTON       SUNNY       76  43  31  W14G24  30.15F
#BOARDMAN SCHOOLN/A         73  46  38  W7      30.14S
#BOARDMAN 3W    N/A         75  50  41  W17G28  29.85S
#BOARDMAN 8SW   N/A         72  48  43  W18     30.15F
#IONE SCHOOL    N/A         70  45  41  W9      30.16F
#IRRIGON 4NW    N/A         75  48  38  SW16G31 N/A
#UMATILLA SCHOOLN/A         74  54  50  W15     30.16F
#UMATILLA       N/A         74  45  35  SW12G24 30.13F
$$

ORZ507-242110-
NORTHERN FOOTHILLS OF THE BLUES

CITY            SKY/WX      TMP DP  RH  WIND    PRES   REMARKS
PENDLETON AIRPT PTCLDY      72  40  31  W23G31  30.17F
#ADAMS 3WNW     N/A         68  45  44  W15G24  30.14F
#ATHENA         N/A         68  45  44  W7      30.16F
#HELIX SCHOOL   N/A         67  43  42  SW7     30.14F
#HELIX 3N       N/A         68  42  39  W16G26  30.14F
#HOLDMAN 5SE    N/A         70  45  41  W13     30.17F
#HOLDMAN 6E     N/A         68  45  44  N8G24   29.96F
#M-F FERNDALE   N/A         74  47  38  CALM    30.16F
#M-F GROVE ELEM N/A         71  36  28  W9      30.15F
#M-FREEWATER 5SEN/A         69  46  44  W6      30.16F
#PDT AQUATIC CTRN/A         71  45  39  W10     30.12S
#PENDLETON DNTN N/A         72  42  34  NW3     30.13S
#PENDLETON 5NE  N/A         71  45  39  CALM    30.13F
#PDT SUNRIDGE   N/A         72  45  38  W7      30.18F
#PENDLETON 7NW  N/A         70  48  46  W10     29.81R
#PILOT ROCK     N/A         69  42  37  W1      30.19F
#TUTUILLA       N/A         74  45  35  W9      30.08F
#UMAPINE 2E     N/A         72  50  46  W7      30.13F
#WESTON SCHOOL  N/A         66  39  37  NW5     30.16S

$$

ORZ508-242110-
SOUTHERN FOOTHILLS OF THE BLUES

CITY            SKY/WX      TMP DP  RH  WIND    PRES   REMARKS
#AJAX           N/A         N/A N/A N/A SW9     30.23S
#CONDON SCHOOL  N/A         61  43  51  SW14G24 30.17F
#CONDON 5W      N/A         61  40  46  SW15G26 30.20F
#HEPPNER EOC    N/A         67  41  39  W12     30.12S
#HEPPNER 4NE    N/A         64  41  43  W14     30.16F
#LEXINGTON 2SE  N/A         71  43  36  W14     30.15F
#MIKKALO        N/A         69  42  37  W8      30.19S
#OLEX 4N        N/A         68  46  45  W16G26  30.16
#RUGGS 5NE      N/A         65  42  43  W13     30.40S
#RUGGS 2SW      N/A         65  41  41  W10     30.22F

$$

ORZ502-503-242110-
BLUE MOUNTAINS

CITY            SKY/WX      TMP DP  RH  WIND    PRES   REMARKS
MEACHAM         CLOUDY      60  40  47  VRB6    30.23F
#BATTLE MTN DOT N/A         57  42  57  S3      N/A
#HARDMAN 10S    N/A         56  40  55  W1      30.27S
#HEPPNER 15SE   N/A         60  41  49  W6      30.16S
#LADD CYN SMT   N/A         63  32  31  N12     N/A
#LADD CREEK ODOTN/A         66  41  40  NE6     N/A
#LONG CREEK HS  N/A         61  41  48  N7      30.18F
#PIKES PEAK     N/A         57  41  55  SW22G32 27.99S
#TOLLGATE 9W    N/A         58  42  55  W5      N/A
#TROY SCHOOL    N/A         71  43  36  W5      29.95F
#UKIAH          N/A         64  40  41  SE5     30.19S
#WESTON 4E      N/A         61  41  48  W7      30.11S
$$

ORZ505-242110-
JOHN DAY BASIN

CITY            SKY/WX      TMP DP  RH  WIND    PRES   REMARKS
JOHN DAY        SUNNY       66  36  33  W3      30.24F
#JOHN DAY KJDY  N/A         71  36  28  NW1     30.16S
#MONUMENT HS    N/A         68  38  33  N8      30.04S
#MT. VERNON 5SE N/A         63  35  35  NE1     30.20F
#WINLOCK        N/A         68  41  37  N8      30.30S
$$

ORZ506-242110-
OCHOCO AND JOHN DAY HIGHLANDS

CITY            SKY/WX      TMP DP  RH  WIND    PRES   REMARKS
#BUCK CREEK DOT N/A         63  37  38  N6      N/A
#HORSE RIDGE DO N/A         61  32  33  N12     N/A
#KEYES SMT DOT  N/A         60  38  44  SW3     N/A
#PAULINA SCHOOL N/A         N/A N/A N/A E1      30.21F
#PINE MTN OBS   N/A         52  33  48  N1      N/A
#PRAIRIE CITY   N/A         66  38  36  SW2     30.13F
#SENECA 9NW     N/A         63  38  39  CALM    30.10F
$$

ORZ049-242110-
GRANDE RONDE VALLEY

CITY            SKY/WX      TMP DP  RH  WIND    PRES   REMARKS
LA GRANDE       SUNNY       66  36  33  N6      30.20F
#COVE           N/A         65  43  45  CALM    30.12F
#COVE SCHOOL    N/A         67  38  34  NW1     30.18F
#COVE 6NW       N/A         63  38  39  CALM    30.18S
#ELGIN 3N       N/A         65  36  34  W3      29.92S
#ELGIN 1E       N/A         63  40  43  W1      N/A
#IMBLER SCHOOL  N/A         65  44  46  CALM    30.16S
#ISLAND CITY 4N N/A         66  46  48  CALM    30.08F
#LADD CYN DOT   N/A         69  40  35  E2      N/A
#UNION 1S       N/A         66  39  37  CALM    30.05S
$$

ORZ050-242110-
WALLOWA COUNTY

CITY            SKY/WX      TMP DP  RH  WIND    PRES   REMARKS
#ENTERPRISE AP  N/A         66  35  32  CALM    29.99S
#ENTERPRISE HS  N/A         63  41  44  S1      30.19F
#IMNAHA SCHOOL  N/A         72  33  24  CALM    30.07F
#IMNAHA 10S     N/A         71  40  32  SW3     30.14F
#JOSEPH 3N      N/A         61  40  46  CALM    30.21F
#JOSEPH 3W      N/A         61  38  42  CALM    30.04F
#LOSTINE        N/A         64  39  40  N8      29.88F
#MT HOWARD 8000 N/A         44  39  82  E1      30.32R
#PROMISE 1S     N/A         57  41  55  E7      30.24F
#SHEEP RDG 7000 N/A         46  36  68  CALM    30.12R
#WALLOWA SCHOOL N/A         65  39  38  W3      30.99F



$$



USA.gov is the U.S. government's official web portal to all federal, state and local government web resources and services.